Date,TemperatureHighF,TemperatureAvgF,TemperatureLowF,DewpointHighF,DewpointAvgF,DewpointLowF,HumidityHigh,HumidityAvg,HumidityLow,PressureMaxIn,PressureMinIn,WindSpeedMaxMPH,WindSpeedAvgMPH,GustSpeedMaxMPH,PrecipitationSumIn
2013-1-1,54.8,47.4,38.8,54.0,42.3,31.0,97,83,65,30.26,29.96,14,6,19,0.06
2013-1-2,46.0,38.5,33.3,31.0,29.0,28.0,86,70,50,30.35,30.25,10,5,16,0.00
2013-1-3,45.0,38.7,28.7,32.0,29.6,25.0,90,71,56,30.47,30.34,10,4,14,0.00
2013-1-4,44.0,40.4,36.4,39.0,35.7,30.0,93,84,58,30.53,30.38,8,4,10,0.13
2013-1-5,55.5,44.9,38.7,45.0,39.9,37.0,94,84,58,30.39,30.21,8,3,10,0.01
2013-1-6,59.0,44.2,33.9,37.0,32.7,29.0,95,68,32,30.43,30.29,11,4,13,0.01
2013-1-7,54.6,43.8,30.8,41.0,34.6,26.0,90,71,50,30.34,30.07,12,5,14,0.00
2013-1-8,51.1,49.2,46.8,50.0,46.9,41.0,96,92,72,30.07,29.88,9,5,16,0.79
2013-1-9,57.3,54.5,51.7,55.0,52.9,50.0,96,94,91,30.01,29.81,18,4,20,0.94
2013-1-10,62.7,52.5,45.5,51.0,46.8,41.0,96,82,57,30.03,29.94,18,4,23,0.01
2013-1-11,70.9,57.9,45.1,59.0,52.3,43.0,94,83,60,29.97,29.76,14,5,23,0.01
2013-1-12,74.4,61.2,42.3,67.0,55.7,33.0,97,83,57,29.92,29.61,23,7,25,0.01
2013-1-13,49.4,41.1,35.6,33.0,28.4,25.0,72,61,45,30.21,29.93,21,10,25,0.00
2013-1-14,48.0,38.9,31.7,30.0,26.2,22.0,70,61,46,30.28,30.11,13,8,19,0.00
2013-1-15,40.0,37.0,34.1,34.0,30.4,23.0,91,78,63,30.27,30.13,17,9,22,0.01
2013-1-16,51.9,38.5,26.7,32.0,23.8,15.0,79,59,24,30.36,30.20,14,3,20,0.00
2013-1-17,63.5,46.1,31.3,38.0,33.5,27.0,90,65,34,30.49,30.31,10,3,13,0.00
2013-1-18,63.7,48.0,32.9,43.0,36.1,30.0,89,66,33,30.51,30.29,10,3,13,0.00
2013-1-19,66.1,53.3,44.2,48.0,43.7,37.0,90,71,47,30.29,30.11,14,5,16,0.00
2013-1-20,73.6,53.7,38.3,48.0,42.0,36.0,95,70,27,30.24,30.05,7,3,12,0.00
2013-1-21,67.9,53.4,41.1,46.0,42.3,39.0,94,69,40,30.24,30.11,8,3,11,0.00
2013-1-22,69.8,54.8,39.9,52.0,45.1,37.0,90,71,53,30.29,30.16,11,3,15,0.00
2013-1-23,73.2,59.7,49.0,57.0,52.7,47.0,95,79,56,30.29,30.15,15,5,17,0.00
2013-1-24,80.0,63.8,51.7,62.0,55.5,50.0,96,77,47,30.20,30.03,10,3,15,0.01
2013-1-25,79.7,63.3,50.5,59.0,51.6,44.0,78,67,48,30.14,29.96,13,7,19,0.00
2013-1-26,61.4,53.8,48.0,57.0,50.1,43.0,94,87,78,30.16,30.05,13,3,13,0.00
2013-1-27,74.5,65.8,58.4,63.0,59.6,56.0,92,81,60,30.06,29.89,20,10,27,0.00
2013-1-28,73.8,68.7,64.7,65.0,63.3,62.0,92,83,69,29.97,29.79,20,10,28,0.00
2013-1-29,76.7,66.6,54.3,65.0,53.2,20.0,89,66,26,29.81,29.45,21,12,39,0.01
2013-1-30,57.3,50.1,40.1,31.0,22.7,12.0,67,37,18,30.20,29.74,23,8,29,0.00
2013-1-31,69.5,50.2,33.1,40.0,27.7,18.0,74,47,16,30.29,30.14,11,2,18,0.00